Location: Cheyres
(46.8153°N, 6.7877°E)
Time: 04:30:27
(UTC+00:00)

Sich 1 - Pass Details

Date: 11 May 2021
Orbit: 595 x 624 km, 82.5° (Epoch: 18 June)

Event Time Altitude Azimuth Distance (km) Brightness Sun altitude
Rises 19:37:57 0° 351° (N) 2,868 7.2 -6.9°
Reaches altitude 10° 19:40:11 10° 353° (N) 1,964 6.3 -7.2°
Maximum altitude 19:44:32 80° 80° (E) 624 3.0 -7.8°
Drops below altitude 10° 19:48:53 10° 168° (SSE) 1,966 5.2 -8.4°
Enters shadow 19:50:16 - 169° (S) 2,529 5.7 -8.6°
